Weather in Luz

Portugal     37°05′20″N   8°43′55″W
temp.,
°C
wind,
m/s
gust,
m/s
humid.,
%
clouds,
%
prec.,
mm/h
press.,
hPa
HPBL,
m
4 december, sat
sat400:00+12nnw56720 0.0 1027211
03:00+12n57864 0.0 1028276
06:00+12n468527 0.0 1028264
09:00+14nw13770 0.0 1029157
12:00+17nw46700 0.0 1029890
15:00+17wnw58711 0.0 1027663
18:00+16nw48840 0.0 1027475
21:00+16nw689225 0.0 1028495
5 december, sun
sun500:00+14nnw710800 0.1 1028471
03:00+12n510800 0.0 1029617
06:00+12n6108132 0.0 1029660
09:00+13n610725 0.0 1030912
12:00+15nnw810596 0.0 10291064
15:00+16nnw910620 0.0 10281101
18:00+15nnw811695 0.0 1028967
21:00+14n710705 0.0 1030831
6 december, mon
mon600:00+13nnw610735 0.0 1030667
03:00+13n610795 0.0 1029630
06:00+12n59813 0.0 1029508
09:00+12n47795 0.0 1030420
12:00+16nnw67590 0.0 1029947
15:00+16nnw78635 0.0 1026767
18:00+15nnw78770 0.0 1027304
21:00+14nnw45830 0.0 1027159
7 december, tue
tue700:00+14n33825 0.0 1026146
03:00+13n238118 0.0 1025134
06:00+13nnw348491 0.0 1024160
09:00+14nnw358840 0.0 1025252
12:00+17w457669 0.0 1024604
15:00+17w677816 0.1 1022612
18:00+16wnw588799 0.3 1022595
21:00+16w6986100 0.2 1022656
8 december, wed
wed800:00+17w7108677 0.3 1021731
03:00+15nnw81084100 0.5 1021715
06:00+14nnw7107486 0.6 1021894
09:00+14nw71063100 0.0 10231562
12:00+15nw9126719 0.1 10231379
15:00+16nw1012638 0.1 10221498
18:00+15nnw1013696 0.3 10231330
21:00+14nnw7106617 0.1 10251128